COSMOS 1510

导读

COSMOS 1510是独联体(CIS)于1983年11月24日08:00发射的卫星,隶属于苏联/俄罗斯"宇宙"(COSMOS)系列卫星项目。该系列卫星承担军事侦察、空间技术试验、航天科研等多样化任务,多运行于近地轨道。作为冷战时期航天活动的产物,它见证了苏联航天工业发展历程,为独联体后续航天技术积累和空间应用探索提供了重要试验数据,是人类航天探索史中苏联航天体系的典型组成部分。

基本信息
目录编号:
14521
目录名称:
COSMOS 1510
国际标识:
1983-115A
轨道中心:
EARTH
卫星名称:
COSMOS 1510
卫星全名:
--
卫星状态:
在轨 (已飞行15544 天)
发射日期:
1983-11-24 UTC
国别 :
俄罗斯(独联体) (CIS)
星等 :
--
轨道信息
数据来源 国际轨道数据 AOE轨道数据
星历时间 2026-06-15T05:05:33+0800
6小时前
查看轨道信息
2026-06-13T10:00:00+0800
2天前
查看轨道信息
半长轴 7879.646km 7879.639km
偏心率 0.0027872 0.00261
轨道倾角 73.619° 73.622°
近地点辐角 333.614° 336.361°
升交点赤经 313.911° 316.317°
平近点角 140.179° 37.042°
近地点 1479.546km 1480.936km
远地点 1523.472km 1522.068km
周期 116.017分钟 116.016分钟
每日圈数 12.412027 12.412045
详细信息
使用方式:
暂无
2D轨道图
3D轨道图
轨道高度分析图
轨道倾角分析图
轨道综合分析图
查看轨道综合分析图